TimeEDT,TemperatureF,Dew PointF,Humidity,Sea Level PressureIn,VisibilityMPH,Wind Direction,Wind SpeedMPH,Gust SpeedMPH,PrecipitationIn,Events,Conditions,WindDirDegrees,DateUTC
12:47 AM,35.6,33.8,93,29.87,10.0,NNW,10.4,-,0.00,Rain,Light Rain,330,2011-10-28 04:47:00
12:52 AM,35.1,34.0,96,29.87,10.0,NNW,9.2,-,0.00,,Overcast,330,2011-10-28 04:52:00
1:52 AM,35.1,33.1,92,29.90,10.0,NNW,11.5,-,N/A,,Overcast,340,2011-10-28 05:52:00
2:17 AM,33.8,32.0,93,29.91,10.0,NW,5.8,-,N/A,,Scattered Clouds,320,2011-10-28 06:17:00
2:52 AM,33.1,32.0,96,29.93,10.0,NW,5.8,-,N/A,,Clear,310,2011-10-28 06:52:00
3:52 AM,32.0,30.9,96,29.95,10.0,NW,3.5,-,N/A,,Clear,310,2011-10-28 07:52:00
4:52 AM,32.0,30.0,92,29.99,10.0,WNW,4.6,-,N/A,,Clear,300,2011-10-28 08:52:00
5:52 AM,30.9,30.0,96,30.01,10.0,West,3.5,-,N/A,,Clear,270,2011-10-28 09:52:00
6:52 AM,33.1,30.0,89,30.05,10.0,WNW,4.6,-,N/A,,Clear,300,2011-10-28 10:52:00
7:52 AM,33.1,30.0,89,30.08,10.0,WNW,5.8,-,N/A,,Clear,300,2011-10-28 11:52:00
8:52 AM,37.0,30.0,76,30.11,10.0,NW,9.2,-,N/A,,Clear,320,2011-10-28 12:52:00
9:52 AM,39.9,28.9,65,30.13,10.0,NW,9.2,-,N/A,,Clear,320,2011-10-28 13:52:00
10:52 AM,43.0,26.1,51,30.14,10.0,North,11.5,17.3,N/A,,Clear,350,2011-10-28 14:52:00
11:52 AM,45.0,24.1,44,30.15,10.0,NNW,9.2,-,N/A,,Clear,330,2011-10-28 15:52:00
12:52 PM,46.0,21.9,39,30.14,10.0,NNW,10.4,-,N/A,,Clear,330,2011-10-28 16:52:00
1:52 PM,48.0,23.0,37,30.14,10.0,WNW,9.2,-,N/A,,Clear,300,2011-10-28 17:52:00
2:52 PM,48.0,21.9,36,30.13,10.0,Variable,5.8,-,N/A,,Clear,0,2011-10-28 18:52:00
3:52 PM,48.0,19.9,33,30.15,10.0,NNW,8.1,-,N/A,,Clear,330,2011-10-28 19:52:00
4:52 PM,46.0,21.0,37,30.17,10.0,NW,10.4,17.3,N/A,,Clear,320,2011-10-28 20:52:00
5:52 PM,42.1,25.0,51,30.17,10.0,WNW,3.5,-,N/A,,Clear,290,2011-10-28 21:52:00
6:52 PM,39.9,27.0,60,30.20,10.0,NW,3.5,-,N/A,,Clear,310,2011-10-28 22:52:00
7:52 PM,37.0,28.9,73,30.23,10.0,West,3.5,-,N/A,,Clear,280,2011-10-28 23:52:00
8:52 PM,35.1,30.9,85,30.22,10.0,Calm,Calm,-,N/A,,Clear,0,2011-10-29 00:52:00
9:52 PM,33.1,32.0,96,30.24,10.0,Calm,Calm,-,N/A,,Clear,0,2011-10-29 01:52:00
10:52 PM,33.1,32.0,96,30.24,10.0,Calm,Calm,-,N/A,,Clear,0,2011-10-29 02:52:00
11:52 PM,33.1,32.0,96,30.25,10.0,Calm,Calm,-,N/A,,Clear,0,2011-10-29 03:52:00